Regional Weather Roundup
Issued by NWS

Home | Current Version | Previous Version | Graphics & Text | Print | Product List | Glossary On
Versions: 1 2 3 4 5 6 7 8 9 10 11 12 13 14 15 16 17 18 19 20 21 22 23 24 25 26 27 28 29 30 31 32 33 34 35 36 37 38 39 40 41 42 43 44 45 46 47 48 49 50
015
ASUS45 KCYS 250210
RWRWY

WYOMING REGIONAL WEATHER ROUNDUP
NATIONAL WEATHER SERVICE CHEYENNE WY
800 PM MDT MON APR 24 2017

NOTE:  "FAIR" INDICATES FEW OR NO CLOUDS BELOW 12,000 FEET
WITH NO SIGNIFICANT WEATHER AND/OR OBSTRUCTIONS TO VISIBILITY.

WYZ001-250300-
YELLOWSTONE NATIONAL PARK

CITY           SKY/WX    TMP DP  RH WIND       PRES   REMARKS
LK YELLOWSTONE   N/A     32  30  92 CALM      29.63S
W YELLOWSTONE  NOT AVBL

$$
WYZ002>013-054>058-071-098>099-250300-
NORTHERN WYOMING

CITY           SKY/WX    TMP DP  RH WIND       PRES   REMARKS
JACKSON        MOCLDY    37  34  87 SE17      29.61F WCI  28
CODY           CLOUDY    43  37  79 N10       29.57S
GREYBULL       CLOUDY    50  40  68 N18       29.50S
WORLAND        CLOUDY    49  41  74 N12       29.49F
SHERIDAN       LGT RAIN  46  44  93 NE9       29.57R
BUFFALO        RAIN      43  39  86 NW16G26   29.56F FOG
GILLETTE       LGT RAIN  47  44  90 E12       29.53F
HULETT         CLOUDY    50  36  57 E9        29.59R
NEWCASTLE      CLOUDY    52  34  50 E13       29.56F

$$
WYZ014>020-022>026-101>103-250300-
CENTRAL WYOMING

CITY           SKY/WX    TMP DP  RH WIND       PRES   REMARKS
BIG PINEY      FAIR      38  32  79 NW9       29.64R WCI  31
PINEDALE       CLOUDY    32  32 100 W5        29.63F WCI  27
DUBOIS         CLOUDY    34  30  86 NW15      29.57R WCI  24
LANDER         CLOUDY    41  37  86 NW18G25   29.50R
RIVERTON       CLOUDY    42  36  79 NW22G33   29.52R
CASPER         LGT RAIN  45  42  89 SW6       29.52R
DOUGLAS        CLOUDY    49  37  63 SE9       29.54S

$$
WYZ021-027>030-104>119-250300-
SOUTHERN WYOMING

CITY           SKY/WX    TMP DP  RH WIND       PRES   REMARKS
EVANSTON       SNOW      33  33 100 W17       29.72R VSB 1/2 WCI  22
KEMMERER       LGT SNOW  32  32 100 W21       29.67S VSB 3/4 WCI  20
FORT BRIDGER   LGT SNOW  35  35  99 W18G28    29.72R VSB 1   WCI  24
ROCK SPRINGS   LGT RAIN  37  33  85 W12       29.64S WCI  29
DIXON          RAIN      37  35  91 S7        29.69R WCI  32
RAWLINS        CLOUDY    35  33  92 W14       29.59F WCI  26
SARATOGA       LGT RAIN  34  34 100 W7        29.63F WCI  28
LARAMIE        RAIN      43  36  76 S18G28    29.61R
CHEYENNE       LGT RAIN  41  39  93 E5        29.62S
TORRINGTON     LGT RAIN  51  41  68 NE6       29.58R
PINE BLUFFS    CLOUDY    46  43  87 NW5       29.62R

$$




USA.gov is the U.S. government's official web portal to all federal, state and local government web resources and services.